CZ-6A DEB, 56274

Orbit data source: Space-Track

CZ-6A DEB, 56274 is space debris in SSO originally from a launch on Fri, 11 Nov 2022 UTC launched from the Taiyaun Space Center, China (TSC). Debris objects in space refer to the collection of defunct objects orbiting the Earth. Examples of debris include non-operational satellites, rocket bodies, and fragments generated from explosions, collisions, or faulty payload assembly.

Loading next visibility...
Identifier
56274, 2022-151ACS
Orbit
SSO
Country
Flag of CNCN / PRC
Related business
Manufacturer
SAST
Mission
Spacecraft
Bus & Motor
Unknown
Mass
Unknown
Launch date (UTC)
2022-11-11 (4 years ago)
Launch vehicle
Unknown
Launch site
Taiyaun Space Center, China (TSC)
Object type
Payload
Rocket body
Debris
Shape & HBR
Unknown shape, 0.1 m
Radar Cross Section
Medium (>0.1 m² and <1 m²)

Expand to show TLE details & history
Last TLE update: 6 hours ago

TLE from 6 hours ago
0 CZ-6A DEB
1 56274U 22151ACS 26236.44614022 -.00000211  00000-0 -10040-3 0  9991
2 56274  98.8745 229.0546 0062607 176.6197 183.5407 14.05958648176050
Epoch: 2026-08-24T10:42Z
TLE epoch observation values (Epoch: 2026-08-24T10:42:26.515Z)
Latitude
0.00005°
Longitude
95.71639°
Altitude
921.446 km
Speed
7.368 km/s
True Right ascension
15h 16m 13s
True Declination
0° 00' 00"
Sunlit
Object was in daylight at epoch
Visualization orbit readout
Latitude
Unknown
Longitude
Unknown
Altitude
Unknown
Speed
Unknown
Apparent Right ascension
Unknown
Apparent Declination
Unknown
Sunlit
N/A
Visualization observer readout
Local Sidereal Time
08:02:41
Azimuth
Unknown
Elevation
Unknown
Doppler factor
Unknown
Orbital elements
Apogee altitude
915.8 km
Perigee altitude
825.038 km
Semi-major axis
7,248.556 km
Eccentricity
0.00626
Inclination
98.8745°
RAAN
229.0546°
Arg. of periapsis
176.6197°
True anomaly
183.49674°
Mean anomaly
183.5407°
Eccentric anomaly
183.51868°
Mean motion
3.51695 °/min
Orbital period
102.36 mins
BSTAR
-0.0001004
Loading maneuver chart data...
Computing Atmospheric mass density...
Loading historical data...
Loading historical data...
Loading historical data...
Loading historical data...
Loading historical data...
Loading historical data...
Loading historical data...

Documentation

Showing up to 5 results
|